Location: Bothwell
(42.3833°S, 147.0000°E)
Time: 20:43:29
(UTC+11:00)

CUTE-I - Pass Details

Date: 03 October 2022
Orbit: 810 x 823 km, 98.7° (Epoch: 29 November)

Event Time Altitude Azimuth Distance (km) Brightness Sun altitude
Rises 20:12:54 0° 173° (S) 3,395 ? -10.4°
Reaches altitude 10° 20:15:21 10° 178° (S) 2,456 ? -10.8°
Maximum altitude 20:20:30 45° 249° (WSW) 1,121 ? -11.7°
Drops below altitude 10° 20:25:37 10° 320° (NW) 2,431 ? -12.6°
Sets 20:28:02 0° 326° (NNW) 3,356 ? -13.0°
